Regional Weather Roundup
Issued by NWS Midland/Odessa, TX

Skip options and go directly to product.
Home | Oldest Version | Previous Version | Current Version | All | Text Only | Save Text | Print | Product List | Glossary On

Skip product version selection by date and time.   
892
ASUS44 KMAF 300110
RWRMAF
MIDLAND AREA WEATHER ROUNDUP
NATIONAL WEATHER SERVICE MIDLAND TX
800 PM CDT TUE JUL 29 2014

...IN SOUTHWEST TEXAS AND SOUTHEAST NEW MEXICO...

CITY           SKY/WX    TMP DP  RH WIND       PRES   REMARKS
ALPINE         MOCLDY    88  44  21 SE7       30.18F
ANDREWS        CLOUDY    91  51  25 S6        30.07R
ARTESIA        MOSUNNY   90  55  31 SW5       30.06S
BIG SPRING     CLOUDY    82  65  58 NE21G30   30.06F
CARLSBAD       PTSUNNY   94  51  23 S9        30.03F
DRYDEN           N/A     98  50  19 E21       30.00R
FORT STOCKTON  CLEAR     92  51  24 SE18      30.04R
GUAD PASS      MOSUNNY   80  56  43 NE9       30.23F
HOBBS          PTCLDY    84  59  42 E10       30.11S
MARFA          MOCLDY    86  46  25 SE9       30.18S
MIDLAND AIRPK  MOCLDY    87  64  45 E20       30.04S
MIDLAND INTL   MOCLDY    94  51  23 S10       30.03S
ODESSA         MOCLDY    94  46  19 SE10      30.05S
PECOS          CLEAR     94  47  20 E9        29.98S
PRESIDIO       FAIR      99  46  16 E9        29.97S
SEMINOLE       MOCLDY    89  58  35 NE9G17    30.10R
SNYDER         CLOUDY    74  69  82 E13       30.09S
WINK           MOCLDY    96  47  18 SE10      29.99F
$$
...OTHER STATIONS IN TEXAS...

CITY           SKY/WX    TMP DP  RH WIND       PRES   REMARKS
ABILENE        TSTM      72  71  97 E7        30.10F
AMARILLO       CLOUDY    75  63  66 SE13      30.13S
AUSTIN         MOCLDY    87  67  51 E13       30.01S
BROWNSVILLE    CLEAR     85  75  72 SE15      29.99S
CORPUS CHRISTI MOCLDY    87  72  60 SE17      30.00R
DALLAS FTW     CLOUDY    82  59  45 CALM      30.06F
DEL RIO        CLEAR     98  57  25 E10G18    29.94S
EL PASO        PTSUNNY   87  59  38 CALM      30.07F
HOUSTON INT    MOCLDY    81  77  88 S3        30.03S
LUBBOCK        CLOUDY    78  65  63 E9        30.11F
SAN ANGELO     MOCLDY    94  63  35 E18G28    30.00F
SAN ANTONIO    MOCLDY    94  60  32 S10       30.00S
WACO           CLEAR     84  55  36 E9        30.04F
WICHITA FALLS  NOT AVBL
$$
...OTHER LOCATIONS IN NEW MEXICO...

CITY           SKY/WX    TMP DP  RH WIND       PRES   REMARKS
ALAMAGORDO     CLOUDY    82  61  47 CALM      30.12S
ALBUQUERQUE    PTSUNNY   76  62  62 E9        30.15F
CANNON AFB     SUNNY     74  66  76 S12       30.15S
CLOVIS         NOT AVBL
HOLLOMAN AFB   CLOUDY    84  59  42 W6        30.09F
ROSWELL        PTSUNNY   78  68  71 N7        30.08F
RUIDOSO        CLOUDY    70  55  60 SW7       30.33S
SANTA FE       NOT AVBL
TRUTH OR CONSE CLOUDY    74  62  66 S6        30.15F
TUCUMCARI      PTSUNNY   79  63  57 SW12      30.09F
$$

USA.gov is the U.S. government's official web portal to all federal, state and local government web resources and services.